Pomona, NJ

11:05 AM EST on February 13, 2016 (GMT -0500)
Atlantic City International

Weather History for KACY - November, 2012

Change the Weather History Date:

Tuesday, November 13, 2012

  Actual Average Record
Temperature  
Mean Temperature 49 °F 48 °F  
Max Temperature 61 °F 57 °F 74 °F (1964)
Min Temperature 36 °F 38 °F 22 °F (1986)
Degree Days  
Heating Degree Days 16 17  
Month to date heating degree days 265 202  
Since 1 July heating degree days 551 560  
Cooling Degree Days 0 0  
Month to date cooling degree days 0 0  
Year to date cooling degree days 1218 1054  
Moisture  
Dew Point 43 °F    
Average Humidity 78    
Maximum Humidity 93    
Minimum Humidity 62    
Precipitation  
Precipitation 0.16 in 0.10 in 1.68 in (1904)
Month to date precipitation 1.02 1.40  
Year to date precipitation 41.13 36.19  
Snow  
Snow 0.00 in 0.00 in T in (2014)
Month to date snowfall 2.5 0.0  
Since 1 July snowfall 2.5 0.0  
Since 1 September snowfall 2.5 0.0  
Snow Depth 0.00 in    
Sea Level Pressure  
Sea Level Pressure 30.30 in    
Wind  
Wind Speed 11 mph (NW)    
Max Wind Speed 22 mph    
Max Gust Speed 26 mph    
Visibility 9 miles    
Events Rain    
T = Trace of Precipitation, MM = Missing Value Source: NWS Daily Summary

Daily Weather History Graph

Daily Weather History Graph

Search for Another Location

Airport or City:

Trip Planner

Search our weather history database for the weather conditions in past years. The results will help you decide how hot, cold, wet, or windy it might be!

Date:

Astronomy

Nov. 13, 2012 Rise Set
Actual Time 6:40 AM EST 4:44 PM EST
Civil Twilight 6:11 AM EST 5:13 PM EST
Nautical Twilight 5:39 AM EST 5:45 PM EST
Astronomical Twilight 5:07 AM EST 6:17 PM EST
Moon 6:15 AM EST 4:35 PM EST
Length of Visible Light 11h 01m
Length of Day
10h 03m
Waning Crescent, 0% of the Moon is Illuminated
Nov 13
Waning Crescent
Nov 13
New
Nov 20
First Quarter
Nov 28
Full
Dec 6
Last Quarter

Hourly Weather History & Observations

Time (EST) Temp. Windchill Dew Point Humidity Pressure Visibility Wind Dir Wind Speed Gust Speed Precip Events Conditions
12:54 AM 60.1 °F - 57.0 °F 90% 30.19 in 10.0 mi South 11.5 mph - N/A   Clear
1:54 AM 60.1 °F - 57.0 °F 90% 30.18 in 10.0 mi South 12.7 mph - N/A   Mostly Cloudy
2:54 AM 61.0 °F - 57.0 °F 87% 30.17 in 10.0 mi South 11.5 mph 18.4 mph N/A   Mostly Cloudy
3:54 AM 61.0 °F - 57.9 °F 90% 30.16 in 10.0 mi South 11.5 mph 18.4 mph N/A   Overcast
4:45 AM 60.8 °F - 57.2 °F 88% 30.17 in 9.0 mi WSW 5.8 mph - 0.00 in Rain Light Rain
4:54 AM 59.0 °F - 55.9 °F 90% 30.18 in 10.0 mi WNW 16.1 mph 19.6 mph 0.01 in Rain Light Rain
5:09 AM 53.6 °F - 50.0 °F 88% 30.20 in 10.0 mi NW 17.3 mph - 0.01 in Rain Light Rain
5:50 AM 51.8 °F - 48.2 °F 88% 30.23 in 10.0 mi NNW 18.4 mph 25.3 mph 0.01 in   Overcast
6:03 AM 50.0 °F - 46.4 °F 87% 30.22 in 10.0 mi NNW 19.6 mph 25.3 mph N/A   Overcast
6:54 AM 48.9 °F - 45.0 °F 86% 30.25 in 10.0 mi NNW 13.8 mph - N/A   Overcast
7:13 AM 48.2 °F - 44.6 °F 87% 30.28 in 10.0 mi NW 15.0 mph 23.0 mph N/A   Overcast
7:54 AM 48.0 °F - 43.0 °F 83% 30.30 in 10.0 mi NW 15.0 mph 23.0 mph N/A   Overcast
8:54 AM 48.0 °F - 42.1 °F 80% 30.30 in 10.0 mi NW 15.0 mph - N/A   Overcast
9:36 AM 46.4 °F 40.4 °F 42.8 °F 87% 30.32 in 10.0 mi NW 13.8 mph - N/A   Overcast
9:54 AM 46.0 °F 39.3 °F 42.1 °F 86% 30.32 in 7.0 mi NW 16.1 mph - 0.00 in Rain Light Rain
10:42 AM 44.6 °F 38.4 °F 42.8 °F 93% 30.33 in 10.0 mi NW 12.7 mph - 0.06 in Rain Light Rain
10:54 AM 45.0 °F 40.1 °F 42.1 °F 90% 30.33 in 10.0 mi NW 9.2 mph - 0.06 in Rain Light Rain
11:28 AM 44.6 °F 38.1 °F 42.8 °F 93% 30.34 in 5.0 mi NW 13.8 mph - 0.02 in Rain Light Rain
11:40 AM 44.6 °F 39.7 °F 42.8 °F 93% 30.34 in 10.0 mi NW 9.2 mph 20.7 mph 0.02 in Rain Light Rain
11:54 AM 45.0 °F 39.3 °F 42.1 °F 90% 30.32 in 10.0 mi NW 11.5 mph - 0.02 in Rain Light Rain
12:02 PM 44.6 °F 38.1 °F 42.8 °F 93% 30.32 in 10.0 mi NNW 13.8 mph - 0.00 in Rain Light Rain
12:47 PM 44.6 °F 38.4 °F 42.8 °F 93% 30.32 in 5.0 mi NW 12.7 mph - 0.03 in Rain Light Rain
12:54 PM 44.1 °F 37.7 °F 41.0 °F 89% 30.32 in 4.0 mi NW 12.7 mph - 0.04 in Rain Rain
1:42 PM 44.6 °F 39.2 °F 41.0 °F 87% 30.32 in 9.0 mi NNW 10.4 mph - 0.02 in Rain Light Rain
1:54 PM 45.0 °F 39.3 °F 41.0 °F 86% 30.32 in 10.0 mi NW 11.5 mph - 0.02 in Rain Light Rain
2:41 PM 44.6 °F 40.2 °F 41.0 °F 87% 30.32 in 10.0 mi NNW 8.1 mph - 0.00 in   Overcast
2:54 PM 45.0 °F 40.6 °F 41.0 °F 86% 30.32 in 10.0 mi NNW 8.1 mph - 0.00 in   Overcast
3:04 PM 44.6 °F 38.4 °F 41.0 °F 87% 30.32 in 10.0 mi NNW 12.7 mph - N/A   Overcast
3:12 PM 44.6 °F 38.1 °F 39.2 °F 81% 30.33 in 10.0 mi NNW 13.8 mph - N/A   Overcast
3:47 PM 44.6 °F 40.2 °F 39.2 °F 81% 30.33 in 10.0 mi NNW 8.1 mph - 0.00 in   Overcast
3:54 PM 44.1 °F 39.0 °F 39.9 °F 85% 30.34 in 10.0 mi NNW 9.2 mph - 0.00 in   Overcast
4:54 PM 44.1 °F 40.1 °F 39.9 °F 85% 30.34 in 10.0 mi NNW 6.9 mph - N/A   Mostly Cloudy
5:54 PM 44.1 °F 41.5 °F 39.0 °F 82% 30.37 in 10.0 mi NNW 4.6 mph - N/A   Overcast
6:54 PM 44.1 °F 40.1 °F 37.9 °F 79% 30.39 in 10.0 mi NNW 6.9 mph - N/A   Overcast
7:54 PM 43.0 °F 38.2 °F 37.0 °F 80% 30.41 in 10.0 mi North 8.1 mph - N/A   Overcast
8:54 PM 42.1 °F 36.1 °F 33.1 °F 70% 30.43 in 10.0 mi North 10.4 mph - N/A   Overcast
9:54 PM 42.1 °F 35.2 °F 30.0 °F 62% 30.44 in 10.0 mi North 12.7 mph - N/A   Overcast
10:54 PM 39.9 °F 33.4 °F 28.0 °F 63% 30.44 in 10.0 mi North 10.4 mph - N/A   Overcast
11:54 PM 36.0 °F 30.3 °F 28.0 °F 73% 30.45 in 10.0 mi NNW 6.9 mph - N/A   Clear